Weather History for Salem, IL

Change the Weather History Date:

Saturday, March 22, 2014

  Actual Average Record
Temperature  
Mean Temperature 44 °F -  
Max Temperature 51 °F 57 °F 79 °F (1988)
Min Temperature 37 °F 35 °F 19 °F (2002)
Degree Days  
Heating Degree Days 20    
Moisture  
Dew Point 33 °F    
Average Humidity 66    
Maximum Humidity 84    
Minimum Humidity 51    
Precipitation  
Precipitation 0.00 in - - ()
Sea Level Pressure  
Sea Level Pressure 30.16 in    
Wind  
Wind Speed 12 mph (NNW)    
Max Wind Speed 24 mph    
Max Gust Speed 31 mph    
Visibility 10 miles    
Events      
Averages and records for this station are not official NWS values.
T = Trace of Precipitation, MM = Missing Value Source: NWS Daily Summary

Daily Weather History Graph

Daily Weather History Graph

Search for Another Location

Airport:

Trip Planner

Search our weather history database for the weather conditions in past years. The results will help you decide how hot, cold, wet, or windy it might be!

Date:

Astronomy

Mar. 22, 2014 Rise Set
Actual Time 6:56 AM CDT 7:09 PM CDT
Civil Twilight 6:29 AM CDT 7:36 PM CDT
Nautical Twilight 5:58 AM CDT 8:07 PM CDT
Astronomical Twilight 5:27 AM CDT 8:39 PM CDT
Moon 12:25 AM CDT (3/22) 10:42 AM CDT (3/22)
Length of Visible Light 13h 06m
Length of Day
12h 13m
Waning Gibbous, 65% of the Moon is Illuminated
Mar 22
Waning Gibbous
Mar 23
Last Quarter
Mar 30
New
Apr 7
First Quarter
Apr 15
Full

Hourly Weather History & Observations

Time (CDT) Temp. Windchill Dew Point Humidity Pressure Visibility Wind Dir Wind Speed Gust Speed Precip Events Conditions
12:15 AM 52.2 °F - 38.5 °F 60% 29.96 in 10.0 mi NNW 8.1 mph - N/A   Clear
12:35 AM 51.3 °F - 38.5 °F 62% 29.96 in 10.0 mi NW 8.1 mph - N/A   Clear
12:55 AM 50.9 °F - 38.5 °F 62% 29.97 in 10.0 mi NNW 6.9 mph - N/A   Clear
1:15 AM 49.3 °F - 37.9 °F 65% 29.97 in 10.0 mi NW 9.2 mph - N/A   Clear
1:35 AM 51.4 °F - 38.8 °F 62% 29.98 in 10.0 mi NNW 24.2 mph 31.1 mph N/A   Scattered Clouds
1:55 AM 50.0 °F - 39.2 °F 66% 29.99 in 10.0 mi NNW 15.0 mph 20.7 mph N/A   Scattered Clouds
2:15 AM 49.1 °F - 38.8 °F 68% 30.00 in 10.0 mi NNW 18.4 mph 26.5 mph N/A   Scattered Clouds
2:35 AM 47.7 °F - 38.8 °F 71% 30.01 in 10.0 mi NNW 12.7 mph - N/A   Scattered Clouds
2:55 AM 46.9 °F - 38.7 °F 73% 30.01 in 10.0 mi NNW 12.7 mph 18.4 mph N/A   Scattered Clouds
3:15 AM 45.3 °F 38.4 °F 38.5 °F 77% 30.02 in 10.0 mi NNW 16.1 mph 20.7 mph N/A   Clear
3:35 AM 43.5 °F 35.2 °F 36.7 °F 77% 30.03 in 10.0 mi NNW 19.6 mph 28.8 mph N/A   Clear
3:55 AM 42.1 °F 33.9 °F 35.8 °F 78% 30.05 in 10.0 mi NNW 17.3 mph 23.0 mph N/A   Clear
4:15 AM 40.8 °F 32.6 °F 35.2 °F 80% 30.05 in 10.0 mi NNW 16.1 mph 24.2 mph N/A   Clear
4:35 AM 39.6 °F 31.3 °F 34.7 °F 83% 30.06 in 10.0 mi NNW 15.0 mph 21.9 mph N/A   Clear
4:55 AM 39.2 °F 31.6 °F 34.7 °F 84% 30.07 in 10.0 mi NNW 12.7 mph - N/A   Mostly Cloudy
5:15 AM 39.7 °F 31.5 °F 34.7 °F 82% 30.08 in 10.0 mi NNW 15.0 mph - N/A   Overcast
5:35 AM 40.1 °F 32.7 °F 34.7 °F 81% 30.09 in 10.0 mi NNW 12.7 mph - N/A   Overcast
5:55 AM 40.1 °F 33.2 °F 34.5 °F 80% 30.10 in 10.0 mi NNW 11.5 mph - N/A   Overcast
6:15 AM 39.9 °F 33.9 °F 34.3 °F 80% 30.11 in 10.0 mi NNW 9.2 mph - N/A   Mostly Cloudy
6:35 AM 39.6 °F 34.7 °F 34.5 °F 82% 30.13 in 10.0 mi North 6.9 mph - N/A   Mostly Cloudy
6:55 AM 39.2 °F 33.0 °F 32.2 °F 76% 30.15 in 10.0 mi North 9.2 mph - N/A   Scattered Clouds
7:15 AM 38.5 °F 32.1 °F 32.0 °F 78% 30.15 in 10.0 mi North 9.2 mph - N/A   Clear
7:35 AM 38.1 °F 30.2 °F 32.0 °F 79% 30.17 in 10.0 mi NNW 12.7 mph - N/A   Scattered Clouds
7:55 AM 37.4 °F 29.8 °F 31.8 °F 80% 30.18 in 10.0 mi NNW 11.5 mph - N/A   Scattered Clouds
8:15 AM 37.6 °F 28.8 °F 31.8 °F 80% 30.18 in 10.0 mi North 15.0 mph - N/A   Scattered Clouds
8:35 AM 38.5 °F 31.1 °F 31.6 °F 76% 30.19 in 10.0 mi NNW 11.5 mph - N/A   Clear
8:55 AM 39.0 °F 31.0 °F 31.8 °F 75% 30.19 in 10.0 mi NNW 13.8 mph - N/A   Clear
9:15 AM 39.6 °F 32.1 °F 31.8 °F 74% 30.19 in 10.0 mi NNW 12.7 mph 18.4 mph N/A   Clear
9:35 AM 40.8 °F 32.6 °F 31.6 °F 70% 30.20 in 10.0 mi North 16.1 mph - N/A   Clear
9:55 AM 41.7 °F 35.2 °F 31.8 °F 68% 30.20 in 10.0 mi NNW 11.5 mph 18.4 mph N/A   Scattered Clouds
10:15 AM 43.0 °F 35.7 °F 32.0 °F 65% 30.21 in 10.0 mi NNW 15.0 mph 19.6 mph N/A   Scattered Clouds
10:35 AM 43.9 °F 37.2 °F 31.6 °F 62% 30.22 in 10.0 mi North 13.8 mph 19.6 mph N/A   Scattered Clouds
10:55 AM 44.1 °F 38.6 °F 31.6 °F 62% 30.22 in 10.0 mi NNW 10.4 mph 17.3 mph N/A   Scattered Clouds
11:15 AM 44.6 °F 39.2 °F 31.5 °F 60% 30.22 in 10.0 mi NNW 10.4 mph - N/A   Scattered Clouds
11:35 AM 45.9 °F 40.0 °F 31.8 °F 58% 30.23 in 10.0 mi NNW 12.7 mph 18.4 mph N/A   Scattered Clouds
11:55 AM 45.7 °F 40.2 °F 31.8 °F 58% 30.23 in 10.0 mi NW 11.5 mph - N/A   Scattered Clouds
12:15 PM 46.8 °F - 31.8 °F 56% 30.22 in 10.0 mi North 10.4 mph 17.3 mph N/A   Scattered Clouds
12:35 PM 47.1 °F - 32.2 °F 56% 30.22 in 10.0 mi NW 11.5 mph 17.3 mph N/A   Scattered Clouds
12:55 PM 47.3 °F - 32.2 °F 56% 30.21 in 10.0 mi North 12.7 mph 16.1 mph N/A   Scattered Clouds
1:15 PM 48.4 °F - 32.4 °F 54% 30.20 in 10.0 mi NNW 9.2 mph - N/A   Scattered Clouds
1:35 PM 48.9 °F - 32.2 °F 52% 30.20 in 10.0 mi NNW 11.5 mph 16.1 mph N/A   Scattered Clouds
1:55 PM 49.1 °F - 32.2 °F 52% 30.20 in 10.0 mi NW 9.2 mph 16.1 mph N/A   Scattered Clouds
2:15 PM 49.8 °F - 32.4 °F 51% 30.19 in 10.0 mi NW 6.9 mph 16.1 mph N/A   Scattered Clouds
2:35 PM 48.9 °F - 32.2 °F 52% 30.18 in 10.0 mi WNW 11.5 mph - N/A   Scattered Clouds
2:55 PM 49.5 °F - 32.2 °F 51% 30.19 in 10.0 mi NNW 9.2 mph 16.1 mph N/A   Clear
3:15 PM 50.0 °F - 33.1 °F 52% 30.18 in 10.0 mi NNW 16.1 mph - N/A   Scattered Clouds
3:35 PM 50.4 °F - 33.1 °F 52% 30.18 in 10.0 mi NW 10.4 mph 18.4 mph N/A   Scattered Clouds
3:55 PM 50.7 °F - 33.1 °F 51% 30.18 in 10.0 mi North 13.8 mph 17.3 mph N/A   Scattered Clouds
4:15 PM 50.2 °F - 32.9 °F 52% 30.19 in 10.0 mi NW 12.7 mph 19.6 mph N/A   Mostly Cloudy
4:35 PM 48.6 °F - 33.1 °F 55% 30.19 in 10.0 mi NNW 15.0 mph - N/A   Scattered Clouds
4:55 PM 48.6 °F - 33.1 °F 55% 30.19 in 10.0 mi NNW 13.8 mph 18.4 mph N/A   Scattered Clouds
5:15 PM 48.2 °F - 32.7 °F 55% 30.19 in 10.0 mi NW 12.7 mph - N/A   Scattered Clouds
5:35 PM 47.5 °F - 32.9 °F 57% 30.20 in 10.0 mi NNW 12.7 mph - N/A   Clear
5:55 PM 46.4 °F 40.7 °F 32.4 °F 58% 30.20 in 10.0 mi North 12.7 mph - N/A   Clear
6:15 PM 46.6 °F - 32.0 °F 57% 30.20 in 10.0 mi NNW 13.8 mph - N/A   Clear
6:35 PM 45.0 °F 39.3 °F 32.0 °F 60% 30.21 in 10.0 mi North 11.5 mph - N/A   Clear
6:55 PM 44.2 °F 38.4 °F 31.6 °F 61% 30.21 in 10.0 mi North 11.5 mph - N/A   Clear
7:15 PM 43.7 °F 39.1 °F 31.8 °F 63% 30.21 in 10.0 mi North 8.1 mph - N/A   Clear
7:35 PM 42.8 °F 37.5 °F 31.8 °F 65% 30.22 in 10.0 mi North 9.2 mph - N/A   Clear
7:55 PM 41.9 °F 35.9 °F 31.8 °F 67% 30.23 in 10.0 mi North 10.4 mph - N/A   Clear
8:15 PM 41.5 °F 35.0 °F 31.3 °F 67% 30.23 in 10.0 mi North 11.5 mph - N/A   Clear
8:35 PM 40.8 °F 35.6 °F 32.0 °F 71% 30.24 in 10.0 mi North 8.1 mph - N/A   Clear
8:55 PM 41.0 °F 35.2 °F 32.0 °F 70% 30.25 in 10.0 mi North 9.2 mph - N/A   Clear
9:15 PM 40.5 °F 33.2 °F 31.6 °F 71% 30.25 in 10.0 mi North 12.7 mph - N/A   Clear
9:35 PM 40.1 °F 33.2 °F 31.1 °F 70% 30.26 in 10.0 mi North 11.5 mph - N/A   Clear
9:55 PM 40.1 °F 33.2 °F 30.9 °F 70% 30.26 in 10.0 mi North 11.5 mph - N/A   Clear
10:15 PM 39.6 °F 31.7 °F 30.9 °F 71% 30.26 in 10.0 mi North 13.8 mph - N/A   Scattered Clouds
10:35 PM 39.4 °F 31.1 °F 30.0 °F 69% 30.26 in 10.0 mi North 15.0 mph - N/A   Mostly Cloudy
10:55 PM 39.2 °F 32.0 °F 30.0 °F 70% 30.27 in 10.0 mi North 11.5 mph - N/A   Overcast
11:15 PM 38.8 °F 30.8 °F 29.7 °F 70% 30.27 in 10.0 mi North 13.8 mph - N/A   Overcast
11:35 PM 38.7 °F 31.4 °F 29.5 °F 70% 30.27 in 10.0 mi North 11.5 mph - N/A   Scattered Clouds
11:55 PM 38.5 °F 30.7 °F 29.1 °F 69% 30.28 in 10.0 mi North 12.7 mph - N/A   Mostly Cloudy